GW1410 Weather Reports


time (UTC)temp
C
wind
direction
speed
KPH
gust
KPH
rain 1hr
cm
rain 24hr
cm
rain mn
cm
humidity
%
barometer
mb
20260902234517 27 40 0.0 6.4 0.00 0.00 0.00 81 1007.8
20260902233013 27 300 0.0 4.8 0.00 0.00 0.00 81 1007.7
20260902231604 27 316 0.0 4.8 0.00 0.00 0.00 82 1007.7
20260902230054 27 42 0.0 4.8 0.00 0.00 0.00 82 1007.6
20260902224544 27 9 1.6 8.0 0.00 0.00 0.00 82 1007.7
20260902223035 27 5 0.0 4.8 0.00 0.00 0.00 82 1007.7
20260902221520 27 281 0.0 3.2 0.00 0.00 0.00 82 1007.8
20260902220015 27 277 0.0 3.2 0.00 0.00 0.00 81 1007.8
20260902214559 27 276 3.2 6.4 0.00 0.00 0.00 81 1007.8
20260902213058 27 311 0.0 4.8 0.00 0.00 0.00 81 1007.9
20260902211545 27 242 0.0 4.8 0.00 0.00 0.00 80 1008.0
20260902210035 27 160 0.0 6.4 0.00 0.00 0.00 80 1008.0
20260902204516 27 23 0.0 6.4 0.00 0.00 0.00 80 1007.9
20260902203017 27 95 1.6 4.8 0.00 0.00 0.00 80 1007.9
20260902201558 27 309 3.2 8.0 0.00 0.00 0.00 80 1007.8
20260902200112 27 55 3.2 8.0 0.00 0.00 0.00 80 1007.8
20260902194542 27 274 1.6 9.7 0.00 0.00 0.00 81 1007.9
20260902193040 27 271 3.2 8.0 0.00 0.00 0.00 81 1007.8
20260902191534 27 275 3.2 8.0 0.00 0.00 0.00 81 1007.7
20260902190024 27 324 0.0 6.4 0.00 0.00 0.00 80 1007.9
20260902184504 27 222 0.0 4.8 0.00 0.00 0.00 80 1008.0
20260902183010 27 297 1.6 9.7 0.00 0.00 0.00 80 1008.0
20260902181604 27 265 3.2 9.7 0.00 0.00 0.00 80 1007.8
20260902174545 27 267 3.2 9.7 0.00 0.00 0.00 78 1007.7
20260902173028 27 5 3.2 9.7 0.00 0.00 0.00 77 1007.7
20260902171527 28 277 3.2 8.0 0.00 0.00 0.00 77 1007.8
20260902170011 28 279 4.8 11.3 0.00 0.00 0.00 78 1007.7
20260902164509 28 273 4.8 12.9 0.00 0.00 0.00 79 1007.6
20260902163058 28 269 3.2 9.7 0.00 0.00 0.00 78 1007.5
20260902161554 28 287 3.2 9.7 0.00 0.00 0.00 78 1007.6
20260902160032 28 267 3.2 12.9 0.00 0.00 0.00 76 1007.5
20260902154532 28 270 1.6 11.3 0.00 0.00 0.00 75 1007.4
20260902153014 28 259 3.2 11.3 0.00 0.00 0.00 73 1007.5
20260902151513 29 121 6.4 11.3 0.00 0.00 0.00 71 1007.6
20260902150001 29 313 4.8 17.7 0.00 0.00 0.00 70 1007.6
20260902144559 29 161 4.8 12.9 0.00 0.00 0.00 70 1007.5
20260902143106 29 350 4.8 12.9 0.00 0.00 0.00 69 1007.6
20260902141558 29 311 4.8 14.5 0.00 0.00 0.00 70 1007.7
20260902140058 30 292 6.4 14.5 0.00 0.00 0.00 68 1007.7
20260902134557 30 300 6.4 14.5 0.00 0.00 0.00 69 1007.6
20260902133057 30 84 6.4 11.3 0.00 0.00 0.00 68 1007.8
20260902131555 30 306 6.4 12.9 0.00 0.00 0.00 66 1007.7
20260902130038 30 288 6.4 14.5 0.00 0.00 0.00 65 1007.9
20260902124537 30 270 4.8 12.9 0.00 0.00 0.00 64 1008.0
20260902123020 30 226 6.4 12.9 0.00 0.00 0.00 65 1008.0
20260902121517 30 28 4.8 12.9 0.00 0.00 0.00 65 1008.0
20260902120059 30 51 6.4 14.5 0.00 0.00 0.00 63 1008.2
20260902114557 31 300 3.2 16.1 0.00 0.00 0.00 64 1008.3
20260902113044 31 292 4.8 17.7 0.00 0.00 0.00 65 1008.4
20260902111541 31 180 1.6 11.3 0.00 0.00 0.00 66 1008.5
20260902110018 31 42 4.8 11.3 0.00 0.00 0.00 65 1008.6
20260902104517 31 66 4.8 14.5 0.00 0.00 0.00 67 1008.6
20260902103059 30 269 6.4 12.9 0.00 0.00 0.00 66 1008.6
20260902101605 30 351 6.4 12.9 0.00 0.00 0.00 67 1008.5
20260902100044 30 285 4.8 9.7 0.00 0.00 0.00 69 1008.6
20260902094538 30 55 4.8 11.3 0.00 0.00 0.00 70 1008.8
20260902093016 30 296 4.8 11.3 0.00 0.00 0.00 71 1008.8
20260902091512 30 107 3.2 14.5 0.00 0.00 0.00 72 1008.9
20260902090054 30 142 3.2 11.3 0.00 0.00 0.00 72 1009.0
20260902084601 30 72 4.8 11.3 0.00 0.00 0.00 72 1009.2
20260902083037 30 5 3.2 9.7 0.00 0.00 0.00 71 1009.3
20260902081535 30 267 4.8 11.3 0.00 0.00 0.00 71 1009.4
20260902080017 30 288 3.2 9.7 0.00 0.00 0.00 71 1009.5
20260902074516 30 48 1.6 9.7 0.00 0.00 0.00 72 1009.4
20260902073059 30 215 1.6 6.4 0.00 0.00 0.00 71 1009.6
20260902071600 30 293 3.2 9.7 0.00 0.00 0.00 72 1009.6
20260902070038 30 355 1.6 6.4 0.00 0.00 0.00 74 1009.7
20260902064538 28 355 1.6 4.8 0.00 0.00 0.00 75 1009.6
20260902063012 28 11 1.6 6.4 0.00 0.00 0.00 77 1009.6
20260902061508 28 275 1.6 8.0 0.00 0.00 0.00 79 1009.6
20260902060046 27 268 0.0 6.4 0.00 0.00 0.00 82 1009.6
20260902054549 27 331 1.6 6.4 0.00 0.00 0.00 82 1009.6
20260902053025 26 26 0.0 6.4 0.00 0.00 0.00 83 1009.6
20260902051521 26 27 0.0 3.2 0.00 0.00 0.00 83 1009.6
20260902050003 25 27 0.0 3.2 0.00 0.00 0.00 83 1009.7
20260902044501 25 27 0.0 0.0 0.00 0.00 0.00 83 1009.6
20260902043041 25 27 0.0 0.0 0.00 0.00 0.00 83 1009.6
20260902041542 25 27 0.0 0.0 0.00 0.00 0.00 83 1009.5
20260902040023 25 27 0.0 0.0 0.00 0.00 0.00 83 1009.4
20260902034524 25 27 0.0 0.0 0.00 0.00 0.00 83 1009.3
20260902033002 25 27 0.0 0.0 0.00 0.00 0.00 83 1009.2
20260902031603 25 27 0.0 0.0 0.00 0.00 0.00 83 1009.2
20260902030041 25 27 0.0 0.0 0.00 0.00 0.00 83 1009.2
20260902024538 25 27 0.0 0.0 0.00 0.00 0.00 83 1009.2
20260902023022 25 27 0.0 0.0 0.00 0.00 0.00 82 1009.1
20260902021518 25 27 0.0 1.6 0.00 0.00 0.00 82 1009.1
20260902020105 25 27 0.0 1.6 0.00 0.00 0.00 82 1009.0
20260902014600 25 27 0.0 0.0 0.00 0.00 0.00 83 1008.9
20260902013042 25 27 0.0 4.8 0.00 0.00 0.00 82 1008.8
20260902011548 25 27 0.0 3.2 0.00 0.00 0.00 82 1008.8
20260902010028 25 27 0.0 3.2 0.00 0.00 0.00 82 1008.8
20260902004526 25 27 0.0 6.4 0.00 0.00 0.00 82 1008.8
20260902003025 26 25 0.0 4.8 0.00 0.00 0.00 82 1008.8
20260902001525 26 24 0.0 3.2 0.00 0.00 0.00 82 1008.9
20260902000023 26 22 0.0 3.2 0.00 0.00 0.00 82 1008.9